Find OneWeb SL0567

NORAD ID: 55147 Int'l Des: 2023-004 Owner: ONEWEBN Country: UK Constellation: oneweb operational
LEOCIRCULARPOLARONEWEB_TYPE

リアルタイム位置

3D地球を読み込み中...

OneWeb SL0567について

説明を読み込み中...

次回通過

Passes for default location (London). Set your location on the main map for personalized predictions.

高度履歴

Loading altitude history...

軌道要素

1 55147U 23004H 26110.09191602 .00000101 00000-0 22378-3 0 9996
2 55147 87.9206 347.0291 0001680 69.2143 290.9169 13.18686395162041
Epoch: Apr 20, 2026 • Age: 14 hours

現在のステータス

高度 1192.2 km
速度 7.26 km/s
衛星直下点 9.38°N, 80.6°E
打ち上げ日 Jan 10, 2023
運用期間 3.2 years
タイプ internet

技術仕様

分類 Payload
質量 148.00 kg
乾燥質量 140.00 kg
総質量 148.00 kg
長さ 1.30 m
直径 1.00 m
スパン 5.00 m
形状 Trapezoid+2 pan
製造者 ONEWUS
バスタイプ ARROW
フェーズステータス In Orbit
所有者/国 ONEWEBN/UK

Most Searched